カタログに戻る

COSMOS 2598

運用中軍事PO
NORAD 66648·PAYLOAD·🇷🇺 Russia

打ち上げ Nov 25, 2025 から Plesetsk Cosmodrome

Loading…

次のパス (今後24時間)

TLE

最新Source: Space-Track

元期: Sep 14, 2026, 13:29 UTC

1 66648U 25273B   26257.56181570  .00000026  00000-0  11859-3 0  9999
2 66648  82.5007 115.0163 0011333 355.8816   4.2169 12.42882522 36409

AllMySatでCOSMOS 2598をリアルタイム追跡

Download on the App Store